| time (UTC) | temp F | wind direction | speed knots | gust knots | rain 1hr in | rain 24hr in | rain mn in | humidity % | barometer mb |
| 20260902104151 | 85 | 0 | 0.0 | 0.9 | 0.00 | 0.00 | 0.00 | 58 | 1011.5 |
| 20260902103650 | 85 | 23 | 0.0 | 0.9 | 0.00 | 0.00 | 0.00 | 59 | 1011.5 |
| 20260902103150 | 85 | 135 | 0.0 | 0.0 | 0.00 | 0.00 | 0.00 | 60 | 1011.5 |
| 20260902102650 | 85 | 158 | 0.0 | 0.0 | 0.00 | 0.00 | 0.00 | 59 | 1011.5 |
| 20260902102150 | 85 | 158 | 0.0 | 0.0 | 0.00 | 0.00 | 0.00 | 58 | 1011.5 |
| 20260902101923 | 85 | 158 | 0.0 | 0.0 | 0.00 | 0.00 | 0.00 | 56 | 1011.1 |
| 20260902101152 | 85 | 158 | 0.0 | 0.0 | 0.00 | 0.00 | 0.00 | 55 | 1011.5 |
| 20260902100651 | 85 | 113 | 0.0 | 0.0 | 0.00 | 0.00 | 0.00 | 55 | 1011.5 |
| 20260902100151 | 85 | 113 | 0.0 | 0.0 | 0.00 | 0.00 | 0.00 | 54 | 1011.5 |
| 20260902095651 | 85 | 113 | 0.0 | 0.0 | 0.00 | 0.00 | 0.00 | 55 | 1011.5 |
| 20260902095154 | 86 | 113 | 0.0 | 0.0 | 0.00 | 0.00 | 0.00 | 54 | 1011.5 |
| 20260902095150 | 85 | 113 | 0.0 | 0.0 | 0.00 | 0.00 | 0.00 | 55 | 1011.1 |
| 20260902094150 | 86 | 113 | 0.0 | 0.0 | 0.00 | 0.00 | 0.00 | 53 | 1011.5 |
| 20260902093650 | 86 | 113 | 0.0 | 0.0 | 0.00 | 0.00 | 0.00 | 54 | 1011.1 |
| 20260902093151 | 86 | 113 | 0.0 | 0.0 | 0.00 | 0.00 | 0.00 | 55 | 1011.1 |
| 20260902092151 | 86 | 113 | 0.0 | 0.0 | 0.00 | 0.00 | 0.00 | 54 | 1011.5 |
| 20260902091921 | 87 | 135 | 0.0 | 0.0 | 0.00 | 0.00 | 0.00 | 55 | 1011.1 |
| 20260902091151 | 87 | 135 | 0.0 | 0.0 | 0.00 | 0.00 | 0.00 | 53 | 1011.5 |
| 20260902090921 | 87 | 135 | 0.0 | 0.0 | 0.00 | 0.00 | 0.00 | 54 | 1011.1 |
| 20260902090149 | 87 | 135 | 0.0 | 0.0 | 0.00 | 0.00 | 0.00 | 51 | 1011.1 |
| 20260902085650 | 87 | 135 | 0.0 | 0.0 | 0.00 | 0.00 | 0.00 | 50 | 1011.1 |
| 20260902085150 | 88 | 135 | 0.0 | 0.0 | 0.00 | 0.00 | 0.00 | 50 | 1011.5 |
| 20260902084650 | 88 | 135 | 0.0 | 1.7 | 0.00 | 0.00 | 0.00 | 50 | 1011.5 |
| 20260902084421 | 88 | 135 | 0.0 | 1.7 | 0.00 | 0.00 | 0.00 | 49 | 1011.1 |
| 20260902083651 | 88 | 158 | 0.0 | 1.7 | 0.00 | 0.00 | 0.00 | 48 | 1011.1 |
| 20260902083421 | 88 | 158 | 0.0 | 3.5 | 0.00 | 0.00 | 0.00 | 48 | 1011.1 |
| 20260902082651 | 88 | 180 | 0.9 | 3.5 | 0.00 | 0.00 | 0.00 | 46 | 1011.5 |
| 20260902082156 | 88 | 180 | 0.9 | 3.5 | 0.00 | 0.00 | 0.00 | 46 | 1011.1 |
| 20260902082151 | 88 | 180 | 0.0 | 3.5 | 0.00 | 0.00 | 0.00 | 46 | 1011.5 |
| 20260902081150 | 88 | 158 | 0.9 | 2.6 | 0.00 | 0.00 | 0.00 | 46 | 1011.5 |
| 20260902080650 | 88 | 158 | 0.9 | 2.6 | 0.00 | 0.00 | 0.00 | 48 | 1011.5 |
| 20260902080149 | 88 | 180 | 0.0 | 3.5 | 0.00 | 0.00 | 0.00 | 49 | 1011.5 |
| 20260902075651 | 88 | 180 | 0.9 | 3.5 | 0.00 | 0.00 | 0.00 | 49 | 1011.5 |
| 20260902075151 | 88 | 180 | 0.9 | 3.5 | 0.00 | 0.00 | 0.00 | 49 | 1011.5 |
| 20260902074651 | 88 | 180 | 0.9 | 3.5 | 0.00 | 0.00 | 0.00 | 50 | 1011.5 |
| 20260902074155 | 88 | 158 | 0.0 | 2.6 | 0.00 | 0.00 | 0.00 | 50 | 1011.5 |
| 20260902074151 | 88 | 158 | 0.9 | 2.6 | 0.00 | 0.00 | 0.00 | 50 | 1011.1 |
| 20260902073149 | 88 | 135 | 0.0 | 1.7 | 0.00 | 0.00 | 0.00 | 50 | 1011.1 |
| 20260902072649 | 88 | 180 | 0.0 | 0.9 | 0.00 | 0.00 | 0.00 | 50 | 1011.1 |
| 20260902072150 | 88 | 338 | 0.0 | 2.6 | 0.00 | 0.00 | 0.00 | 50 | 1011.1 |
| 20260902071920 | 88 | 180 | 0.9 | 2.6 | 0.00 | 0.00 | 0.00 | 50 | 1011.1 |
| 20260902071150 | 88 | 158 | 0.0 | 1.7 | 0.00 | 0.00 | 0.00 | 50 | 1011.1 |
| 20260902070922 | 88 | 158 | 0.0 | 2.6 | 0.00 | 0.00 | 0.00 | 50 | 1010.8 |
| 20260902070150 | 88 | 135 | 0.0 | 2.6 | 0.00 | 0.00 | 0.00 | 51 | 1010.8 |
| 20260902065651 | 88 | 158 | 0.0 | 0.0 | 0.00 | 0.00 | 0.00 | 51 | 1011.1 |
| 20260902065150 | 89 | 158 | 0.0 | 0.0 | 0.00 | 0.00 | 0.00 | 53 | 1011.1 |
| 20260902064650 | 89 | 135 | 0.0 | 0.0 | 0.00 | 0.00 | 0.00 | 51 | 1011.1 |
| 20260902064149 | 89 | 135 | 0.0 | 0.0 | 0.00 | 0.00 | 0.00 | 51 | 1011.1 |
| 20260902063649 | 89 | 135 | 0.0 | 0.0 | 0.00 | 0.00 | 0.00 | 50 | 1010.8 |
| 20260902063150 | 89 | 135 | 0.0 | 0.0 | 0.00 | 0.00 | 0.00 | 50 | 1010.8 |
| 20260902062650 | 89 | 135 | 0.0 | 0.0 | 0.00 | 0.00 | 0.00 | 49 | 1010.8 |
| 20260902062151 | 89 | 135 | 0.0 | 0.0 | 0.00 | 0.00 | 0.00 | 50 | 1010.8 |
| 20260902061650 | 89 | 135 | 0.0 | 0.0 | 0.00 | 0.00 | 0.00 | 50 | 1011.1 |
| 20260902061422 | 89 | 158 | 0.0 | 0.0 | 0.00 | 0.00 | 0.00 | 49 | 1010.8 |
| 20260902060652 | 89 | 180 | 0.0 | 0.0 | 0.00 | 0.00 | 0.00 | 50 | 1011.1 |
| 20260902060421 | 89 | 203 | 0.0 | 0.0 | 0.00 | 0.00 | 0.00 | 50 | 1011.1 |
| 20260902055650 | 89 | 203 | 0.0 | 0.9 | 0.00 | 0.00 | 0.00 | 50 | 1011.1 |
| 20260902055150 | 89 | 203 | 0.0 | 1.7 | 0.00 | 0.00 | 0.00 | 49 | 1011.1 |
| 20260902054649 | 89 | 180 | 0.0 | 3.5 | 0.00 | 0.00 | 0.00 | 48 | 1011.1 |
| 20260902054150 | 89 | 180 | 0.9 | 3.5 | 0.00 | 0.00 | 0.00 | 46 | 1011.1 |
| 20260902053651 | 89 | 180 | 0.0 | 3.5 | 0.00 | 0.00 | 0.00 | 46 | 1011.1 |
| 20260902053421 | 89 | 113 | 0.9 | 3.5 | 0.00 | 0.00 | 0.00 | 46 | 1011.1 |
| 20260902053407 | 89 | 158 | 0.0 | 2.6 | 0.00 | 0.00 | 0.00 | 46 | 1011.1 |
| 20260902052151 | 89 | 158 | 0.0 | 3.5 | 0.00 | 0.00 | 0.00 | 46 | 1010.8 |
| 20260902051650 | 89 | 158 | 0.9 | 3.5 | 0.00 | 0.00 | 0.00 | 46 | 1011.1 |
| 20260902051149 | 89 | 203 | 0.0 | 2.6 | 0.00 | 0.00 | 0.00 | 48 | 1011.1 |
| 20260902050650 | 89 | 180 | 0.0 | 0.0 | 0.00 | 0.00 | 0.00 | 49 | 1011.1 |
| 20260902050149 | 89 | 180 | 0.0 | 0.0 | 0.00 | 0.00 | 0.00 | 50 | 1010.8 |
| 20260902045653 | 89 | 203 | 0.0 | 0.0 | 0.00 | 0.00 | 0.00 | 50 | 1011.1 |
| 20260902045649 | 89 | 180 | 0.0 | 0.0 | 0.00 | 0.00 | 0.00 | 50 | 1010.8 |
| 20260902044922 | 89 | 180 | 0.0 | 0.0 | 0.00 | 0.00 | 0.00 | 50 | 1010.8 |
| 20260902044151 | 89 | 203 | 0.0 | 0.0 | 0.00 | 0.00 | 0.00 | 49 | 1010.8 |
| 20260902043921 | 89 | 203 | 0.0 | 0.0 | 0.00 | 0.00 | 0.00 | 50 | 1010.8 |
| 20260902043152 | 89 | 203 | 0.0 | 0.0 | 0.00 | 0.00 | 0.00 | 46 | 1010.8 |
| 20260902042649 | 90 | 203 | 0.0 | 0.0 | 0.00 | 0.00 | 0.00 | 50 | 1010.8 |
| 20260902042149 | 90 | 203 | 0.0 | 0.0 | 0.00 | 0.00 | 0.00 | 49 | 1010.8 |
| 20260902041649 | 90 | 203 | 0.0 | 0.0 | 0.00 | 0.00 | 0.00 | 49 | 1010.8 |
| 20260902041149 | 90 | 203 | 0.0 | 0.0 | 0.00 | 0.00 | 0.00 | 49 | 1010.8 |
| 20260902040650 | 90 | 180 | 0.0 | 0.0 | 0.00 | 0.00 | 0.00 | 50 | 1010.8 |
| 20260902040422 | 90 | 45 | 0.0 | 0.0 | 0.00 | 0.00 | 0.00 | 48 | 1010.5 |
| 20260902035651 | 90 | 23 | 0.0 | 0.0 | 0.00 | 0.00 | 0.00 | 50 | 1010.8 |
| 20260902035150 | 90 | 23 | 0.0 | 0.0 | 0.00 | 0.00 | 0.00 | 49 | 1010.5 |
| 20260902034651 | 91 | 45 | 0.0 | 0.0 | 0.00 | 0.00 | 0.00 | 48 | 1010.5 |
| 20260902034149 | 91 | 45 | 0.0 | 0.0 | 0.00 | 0.00 | 0.00 | 46 | 1010.0 |
| 20260902033650 | 91 | 270 | 0.0 | 0.0 | 0.00 | 0.00 | 0.00 | 48 | 1010.0 |
| 20260902033149 | 91 | 270 | 0.0 | 0.0 | 0.00 | 0.00 | 0.00 | 46 | 1009.7 |
| 20260902032649 | 91 | 293 | 0.0 | 0.0 | 0.00 | 0.00 | 0.00 | 46 | 1009.7 |
| 20260902032150 | 91 | 270 | 0.0 | 0.0 | 0.00 | 0.00 | 0.00 | 46 | 1009.7 |
| 20260902031650 | 91 | 270 | 0.0 | 0.0 | 0.00 | 0.00 | 0.00 | 45 | 1009.3 |
| 20260902031150 | 91 | 270 | 0.0 | 0.0 | 0.00 | 0.00 | 0.00 | 45 | 1009.3 |
| 20260902030651 | 92 | 248 | 0.0 | 0.0 | 0.00 | 0.00 | 0.00 | 46 | 1009.3 |
| 20260902030150 | 92 | 203 | 0.0 | 0.0 | 0.00 | 0.00 | 0.00 | 45 | 1009.3 |
| 20260902025649 | 92 | 203 | 0.0 | 0.0 | 0.00 | 0.00 | 0.00 | 45 | 1009.0 |
| 20260902025149 | 92 | 203 | 0.0 | 0.0 | 0.00 | 0.00 | 0.00 | 45 | 1009.0 |
| 20260902024649 | 92 | 203 | 0.0 | 0.0 | 0.00 | 0.00 | 0.00 | 45 | 1009.3 |
| 20260902024149 | 92 | 203 | 0.0 | 0.0 | 0.00 | 0.00 | 0.00 | 44 | 1009.0 |
| 20260902023921 | 93 | 203 | 0.0 | 0.0 | 0.00 | 0.00 | 0.00 | 45 | 1009.3 |
| 20260902023151 | 93 | 180 | 0.0 | 0.0 | 0.00 | 0.00 | 0.00 | 45 | 1009.0 |
| 20260902022650 | 93 | 180 | 0.0 | 0.0 | 0.00 | 0.00 | 0.00 | 44 | 1009.0 |
| 20260902022151 | 93 | 270 | 0.0 | 0.0 | 0.00 | 0.00 | 0.00 | 44 | 1009.0 |
| 20260902021650 | 93 | 158 | 0.0 | 0.0 | 0.00 | 0.00 | 0.00 | 44 | 1009.0 |
| 20260902021149 | 94 | 225 | 0.0 | 0.0 | 0.00 | 0.00 | 0.00 | 43 | 1009.0 |
| 20260902020648 | 94 | 180 | 0.0 | 0.0 | 0.00 | 0.00 | 0.00 | 40 | 1009.0 |
| 20260902020149 | 94 | 248 | 0.0 | 0.0 | 0.00 | 0.00 | 0.00 | 40 | 1009.0 |
| 20260902015653 | 94 | 23 | 0.0 | 0.0 | 0.00 | 0.00 | 0.00 | 39 | 1008.7 |
| 20260902015649 | 94 | 68 | 0.0 | 0.0 | 0.00 | 0.00 | 0.00 | 39 | 1008.7 |
| 20260902014650 | 95 | 158 | 0.0 | 0.0 | 0.00 | 0.00 | 0.00 | 39 | 1008.7 |
| 20260902014150 | 95 | 270 | 0.0 | 0.0 | 0.00 | 0.00 | 0.00 | 40 | 1008.7 |
| 20260902013650 | 95 | 270 | 0.0 | 0.0 | 0.00 | 0.00 | 0.00 | 40 | 1008.7 |
| 20260902013421 | 96 | 270 | 0.0 | 0.0 | 0.00 | 0.00 | 0.00 | 35 | 1008.7 |
| 20260902012654 | 96 | 68 | 0.0 | 0.9 | 0.00 | 0.00 | 0.00 | 35 | 1008.7 |
| 20260902012650 | 96 | 180 | 0.0 | 0.0 | 0.00 | 0.00 | 0.00 | 37 | 1008.7 |
| 20260902011649 | 96 | 23 | 0.0 | 2.6 | 0.00 | 0.00 | 0.00 | 35 | 1008.7 |
| 20260902011149 | 96 | 180 | 0.0 | 2.6 | 0.00 | 0.00 | 0.00 | 35 | 1008.7 |
| 20260902010653 | 97 | 293 | 0.0 | 3.5 | 0.00 | 0.00 | 0.00 | 35 | 1008.7 |
| 20260902010649 | 96 | 248 | 0.0 | 2.6 | 0.00 | 0.00 | 0.00 | 35 | 1009.0 |
| 20260902005650 | 97 | 225 | 0.9 | 3.5 | 0.00 | 0.00 | 0.00 | 34 | 1009.0 |
| 20260902005150 | 97 | 225 | 0.0 | 1.7 | 0.00 | 0.00 | 0.00 | 35 | 1009.0 |
| 20260902004651 | 97 | 270 | 0.0 | 2.6 | 0.00 | 0.00 | 0.00 | 35 | 1009.0 |
| 20260902004150 | 97 | 203 | 0.0 | 2.6 | 0.00 | 0.00 | 0.00 | 34 | 1009.0 |
| 20260902003649 | 97 | 315 | 0.0 | 4.3 | 0.00 | 0.00 | 0.00 | 37 | 1008.7 |
| 20260902003149 | 97 | 158 | 0.9 | 4.3 | 0.00 | 0.00 | 0.00 | 35 | 1009.3 |
| 20260902002920 | 97 | 180 | 0.9 | 4.3 | 0.00 | 0.00 | 0.00 | 35 | 1009.0 |
| 20260902002149 | 97 | 203 | 0.0 | 2.6 | 0.00 | 0.00 | 0.00 | 35 | 1009.3 |
| 20260902001650 | 98 | 180 | 0.0 | 4.3 | 0.00 | 0.00 | 0.00 | 35 | 1009.3 |
| 20260902001150 | 98 | 135 | 0.9 | 4.3 | 0.00 | 0.00 | 0.00 | 35 | 1009.3 |
| 20260902000921 | 98 | 158 | 0.0 | 3.5 | 0.00 | 0.00 | 0.00 | 37 | 1009.3 |
| 20260902000151 | 98 | 248 | 0.9 | 4.3 | 0.00 | 0.00 | 0.00 | 37 | 1009.3 |
| 20260901235650 | 98 | 270 | 0.9 | 4.3 | 0.00 | 0.00 | 0.00 | 35 | 1009.3 |
| 20260901235420 | 99 | 68 | 0.0 | 5.2 | 0.00 | 0.00 | 0.00 | 35 | 1009.3 |
| 20260901235410 | 99 | 158 | 0.9 | 5.2 | 0.00 | 0.00 | 0.00 | 35 | 1009.7 |
| 20260901234149 | 99 | 225 | 0.9 | 7.0 | 0.00 | 0.00 | 0.00 | 35 | 1009.3 |
| 20260901233648 | 99 | 225 | 1.7 | 7.0 | 0.00 | 0.00 | 0.00 | 35 | 1009.3 |
| 20260901233150 | 100 | 315 | 0.9 | 5.2 | 0.00 | 0.00 | 0.00 | 35 | 1009.3 |
| 20260901232631 | 100 | 225 | 1.7 | 5.2 | 0.00 | 0.00 | 0.00 | 35 | 1009.7 |
| 20260901232131 | 100 | 135 | 0.9 | 5.2 | 0.00 | 0.00 | 0.00 | 37 | 1009.3 |
| 20260901231631 | 100 | 180 | 1.7 | 5.2 | 0.00 | 0.00 | 0.00 | 35 | 1009.7 |
| 20260901231131 | 100 | 113 | 0.9 | 4.3 | 0.00 | 0.00 | 0.00 | 37 | 1009.7 |
| 20260901230629 | 100 | 203 | 0.9 | 6.1 | 0.00 | 0.00 | 0.00 | 35 | 1009.3 |
| 20260901230130 | 100 | 270 | 1.7 | 6.1 | 0.00 | 0.00 | 0.00 | 35 | 1010.0 |
| 20260901225629 | 99 | 180 | 0.9 | 5.2 | 0.00 | 0.00 | 0.00 | 35 | 1009.7 |
| 20260901225129 | 99 | 180 | 0.0 | 2.6 | 0.00 | 0.00 | 0.00 | 37 | 1010.0 |
| 20260901224630 | 99 | 203 | 0.0 | 7.8 | 0.00 | 0.00 | 0.00 | 37 | 1010.0 |
| 20260901224402 | 99 | 158 | 1.7 | 7.8 | 0.00 | 0.00 | 0.00 | 37 | 1009.7 |
| 20260901223630 | 99 | 203 | 1.7 | 6.1 | 0.00 | 0.00 | 0.00 | 37 | 1010.0 |
| 20260901223130 | 99 | 180 | 0.9 | 6.1 | 0.00 | 0.00 | 0.00 | 37 | 1009.7 |
| 20260901222631 | 99 | 270 | 0.0 | 3.5 | 0.00 | 0.00 | 0.00 | 37 | 1010.0 |
| 20260901222129 | 100 | 45 | 0.0 | 3.5 | 0.00 | 0.00 | 0.00 | 37 | 1010.0 |
| 20260901221630 | 100 | 113 | 0.9 | 6.1 | 0.00 | 0.00 | 0.00 | 37 | 1010.5 |
| 20260901221401 | 100 | 180 | 0.9 | 6.1 | 0.00 | 0.00 | 0.00 | 37 | 1010.5 |
| 20260901220629 | 100 | 203 | 0.9 | 5.2 | 0.00 | 0.00 | 0.00 | 37 | 1010.5 |
| 20260901220129 | 100 | 158 | 0.9 | 4.3 | 0.00 | 0.00 | 0.00 | 37 | 1010.5 |
| 20260901215901 | 99 | 315 | 0.9 | 4.3 | 0.00 | 0.00 | 0.00 | 37 | 1010.5 |
| 20260901215130 | 100 | 180 | 0.9 | 6.1 | 0.00 | 0.00 | 0.00 | 37 | 1010.5 |
| 20260901214906 | 100 | 158 | 0.9 | 5.2 | 0.00 | 0.00 | 0.00 | 37 | 1010.5 |
| 20260901214630 | 100 | 158 | 1.7 | 6.1 | 0.00 | 0.00 | 0.00 | 37 | 1010.5 |
| 20260901213631 | 100 | 180 | 0.9 | 4.3 | 0.00 | 0.00 | 0.00 | 37 | 1010.8 |
| 20260901213401 | 99 | 113 | 0.0 | 5.2 | 0.00 | 0.00 | 0.00 | 40 | 1010.8 |
| 20260901212629 | 98 | 293 | 0.9 | 6.1 | 0.00 | 0.00 | 0.00 | 40 | 1011.1 |
| 20260901212129 | 98 | 270 | 0.9 | 6.1 | 0.00 | 0.00 | 0.00 | 40 | 1011.1 |
| 20260901211629 | 97 | 270 | 0.9 | 6.1 | 0.00 | 0.00 | 0.00 | 40 | 1011.5 |
| 20260901211131 | 97 | 180 | 1.7 | 6.1 | 0.00 | 0.00 | 0.00 | 40 | 1011.5 |
| 20260901210631 | 97 | 180 | 0.0 | 2.6 | 0.00 | 0.00 | 0.00 | 40 | 1011.5 |
| 20260901210134 | 97 | 338 | 0.9 | 6.1 | 0.00 | 0.00 | 0.00 | 41 | 1011.8 |
| 20260901210130 | 97 | 225 | 0.0 | 3.5 | 0.00 | 0.00 | 0.00 | 40 | 1011.5 |
| 20260901205130 | 97 | 135 | 1.7 | 6.1 | 0.00 | 0.00 | 0.00 | 41 | 1011.8 |
| 20260901204901 | 96 | 248 | 0.9 | 5.2 | 0.00 | 0.00 | 0.00 | 40 | 1011.8 |
| 20260901204129 | 96 | 203 | 0.9 | 4.3 | 0.00 | 0.00 | 0.00 | 41 | 1011.8 |
| 20260901203629 | 96 | 225 | 0.0 | 3.5 | 0.00 | 0.00 | 0.00 | 41 | 1011.8 |
| 20260901203129 | 96 | 45 | 0.9 | 3.5 | 0.00 | 0.00 | 0.00 | 43 | 1012.1 |
| 20260901202630 | 96 | 158 | 0.0 | 3.5 | 0.00 | 0.00 | 0.00 | 43 | 1011.8 |
| 20260901202130 | 96 | 45 | 0.9 | 3.5 | 0.00 | 0.00 | 0.00 | 45 | 1012.1 |
| 20260901201629 | 95 | 23 | 0.9 | 3.5 | 0.00 | 0.00 | 0.00 | 45 | 1012.1 |
| 20260901201134 | 95 | 203 | 0.9 | 5.2 | 0.00 | 0.00 | 0.00 | 44 | 1012.1 |
| 20260901201130 | 95 | 248 | 0.9 | 3.5 | 0.00 | 0.00 | 0.00 | 44 | 1012.1 |
| 20260901200128 | 94 | 203 | 0.0 | 5.2 | 0.00 | 0.00 | 0.00 | 43 | 1012.5 |
| 20260901195633 | 94 | 203 | 0.0 | 3.5 | 0.00 | 0.00 | 0.00 | 44 | 1012.5 |
| 20260901195629 | 94 | 293 | 0.0 | 3.5 | 0.00 | 0.00 | 0.00 | 45 | 1012.5 |
| 20260901194628 | 94 | 180 | 0.9 | 5.2 | 0.00 | 0.00 | 0.00 | 44 | 1012.5 |
| 20260901194130 | 94 | 180 | 1.7 | 5.2 | 0.00 | 0.00 | 0.00 | 45 | 1012.5 |
| 20260901193629 | 94 | 270 | 0.9 | 3.5 | 0.00 | 0.00 | 0.00 | 46 | 1012.8 |
| 20260901193400 | 94 | 180 | 0.9 | 3.5 | 0.00 | 0.00 | 0.00 | 45 | 1012.5 |
| 20260901192629 | 94 | 180 | 0.9 | 3.5 | 0.00 | 0.00 | 0.00 | 45 | 1012.8 |
| 20260901192130 | 93 | 180 | 0.9 | 3.5 | 0.00 | 0.00 | 0.00 | 48 | 1012.8 |
| 20260901191629 | 93 | 225 | 0.9 | 3.5 | 0.00 | 0.00 | 0.00 | 46 | 1012.8 |
| 20260901191129 | 93 | 203 | 0.9 | 3.5 | 0.00 | 0.00 | 0.00 | 46 | 1012.8 |
| 20260901190629 | 93 | 180 | 0.9 | 3.5 | 0.00 | 0.00 | 0.00 | 46 | 1013.3 |
| 20260901190359 | 93 | 45 | 0.9 | 5.2 | 0.00 | 0.00 | 0.00 | 46 | 1013.3 |
| 20260901185633 | 92 | 203 | 0.0 | 3.5 | 0.00 | 0.00 | 0.00 | 48 | 1013.6 |
| 20260901185629 | 93 | 180 | 0.9 | 4.3 | 0.00 | 0.00 | 0.00 | 48 | 1013.6 |
| 20260901184629 | 92 | 270 | 0.9 | 5.2 | 0.00 | 0.00 | 0.00 | 46 | 1013.6 |
| 20260901184129 | 92 | 203 | 0.9 | 5.2 | 0.00 | 0.00 | 0.00 | 48 | 1013.6 |
| 20260901183629 | 92 | 180 | 1.7 | 5.2 | 0.00 | 0.00 | 0.00 | 49 | 1013.6 |
| 20260901183127 | 92 | 270 | 0.9 | 4.3 | 0.00 | 0.00 | 0.00 | 49 | 1013.9 |
| 20260901182630 | 92 | 270 | 0.9 | 5.2 | 0.00 | 0.00 | 0.00 | 48 | 1013.6 |
| 20260901182130 | 92 | 180 | 0.9 | 5.2 | 0.00 | 0.00 | 0.00 | 48 | 1013.9 |
| 20260901181628 | 91 | 158 | 0.9 | 4.3 | 0.00 | 0.00 | 0.00 | 48 | 1013.9 |
| 20260901181359 | 91 | 203 | 0.9 | 5.2 | 0.00 | 0.00 | 0.00 | 49 | 1013.9 |
| 20260901180613 | 91 | 90 | 0.9 | 5.2 | 0.00 | 0.00 | 0.00 | 49 | 1013.9 |
| 20260901180110 | 91 | 180 | 0.9 | 3.5 | 0.00 | 0.00 | 0.00 | 50 | 1013.9 |
| 20260901175611 | 91 | 225 | 0.9 | 3.5 | 0.00 | 0.00 | 0.00 | 50 | 1014.3 |
| 20260901175109 | 91 | 180 | 0.9 | 3.5 | 0.00 | 0.00 | 0.00 | 50 | 1014.3 |
| 20260901174608 | 91 | 180 | 0.9 | 3.5 | 0.00 | 0.00 | 0.00 | 50 | 1014.3 |
| 20260901174108 | 90 | 180 | 0.9 | 4.3 | 0.00 | 0.00 | 0.00 | 50 | 1014.3 |
| 20260901173609 | 90 | 203 | 0.9 | 4.3 | 0.00 | 0.00 | 0.00 | 51 | 1014.3 |
| 20260901173109 | 90 | 225 | 0.9 | 4.3 | 0.00 | 0.00 | 0.00 | 51 | 1014.3 |
| 20260901172609 | 89 | 270 | 0.9 | 4.3 | 0.00 | 0.00 | 0.00 | 51 | 1014.3 |
| 20260901172109 | 89 | 203 | 0.9 | 6.1 | 0.00 | 0.00 | 0.00 | 50 | 1014.3 |
| 20260901171610 | 89 | 180 | 1.7 | 6.1 | 0.00 | 0.00 | 0.00 | 50 | 1014.3 |
| 20260901171109 | 90 | 203 | 0.9 | 5.2 | 0.00 | 0.00 | 0.00 | 50 | 1014.3 |
| 20260901170610 | 90 | 270 | 0.9 | 4.3 | 0.00 | 0.00 | 0.00 | 51 | 1014.3 |
| 20260901170109 | 90 | 23 | 0.9 | 4.3 | 0.00 | 0.00 | 0.00 | 51 | 1014.3 |
| 20260901165609 | 90 | 180 | 0.9 | 3.5 | 0.00 | 0.00 | 0.00 | 51 | 1014.3 |
| 20260901165109 | 90 | 203 | 0.9 | 4.3 | 0.00 | 0.00 | 0.00 | 51 | 1014.3 |
| 20260901164840 | 90 | 180 | 0.9 | 4.3 | 0.00 | 0.00 | 0.00 | 51 | 1013.9 |
| 20260901164110 | 90 | 45 | 0.9 | 4.3 | 0.00 | 0.00 | 0.00 | 50 | 1013.9 |
| 20260901163610 | 89 | 158 | 0.0 | 4.3 | 0.00 | 0.00 | 0.00 | 54 | 1014.3 |
| 20260901163109 | 88 | 270 | 0.9 | 4.3 | 0.00 | 0.00 | 0.00 | 53 | 1014.3 |
| 20260901162609 | 88 | 203 | 0.9 | 4.3 | 0.00 | 0.00 | 0.00 | 54 | 1013.9 |
| 20260901162341 | 87 | 203 | 0.9 | 4.3 | 0.00 | 0.00 | 0.00 | 56 | 1013.9 |
| 20260901161609 | 86 | 158 | 0.9 | 4.3 | 0.00 | 0.01 | 0.00 | 56 | 1014.3 |
| 20260901161108 | 86 | 225 | 0.9 | 3.5 | 0.00 | 0.01 | 0.00 | 58 | 1013.9 |
| 20260901160603 | 85 | 180 | 0.9 | 3.5 | 0.00 | 0.03 | 0.00 | 58 | 1013.9 |
| 20260901160321 | 85 | 203 | 0.9 | 3.5 | 0.00 | 0.04 | 0.00 | 59 | 1013.9 |
| 20260901155549 | 85 | 180 | 0.9 | 3.5 | 0.00 | 0.04 | 0.00 | 58 | 1013.9 |
| 20260901155051 | 84 | 225 | 0.0 | 3.5 | 0.00 | 0.05 | 0.00 | 59 | 1013.9 |
| 20260901154551 | 84 | 180 | 0.9 | 3.5 | 0.00 | 0.05 | 0.00 | 60 | 1013.6 |
| 20260901154321 | 84 | 203 | 0.0 | 4.3 | 0.00 | 0.06 | 0.00 | 60 | 1013.9 |
| 20260901153552 | 84 | 180 | 0.9 | 4.3 | 0.00 | 0.06 | 0.00 | 59 | 1013.6 |
| 20260901153050 | 83 | 158 | 0.9 | 3.5 | 0.00 | 0.07 | 0.00 | 60 | 1013.9 |
| 20260901152550 | 83 | 338 | 0.0 | 3.5 | 0.00 | 0.08 | 0.00 | 60 | 1013.9 |
| 20260901152049 | 83 | 270 | 0.9 | 3.5 | 0.00 | 0.09 | 0.00 | 61 | 1013.9 |
| 20260901151549 | 83 | 158 | 0.9 | 2.6 | 0.00 | 0.10 | 0.00 | 61 | 1013.9 |
| 20260901151049 | 82 | 158 | 0.0 | 1.7 | 0.00 | 0.10 | 0.00 | 61 | 1013.6 |
| 20260901150827 | 81 | 315 | 0.9 | 3.5 | 0.00 | 0.10 | 0.00 | 63 | 1013.9 |
| 20260901150551 | 82 | 315 | 0.0 | 3.5 | 0.00 | 0.10 | 0.00 | 61 | 1013.9 |
| 20260901145551 | 81 | 68 | 0.0 | 2.6 | 0.00 | 0.10 | 0.00 | 65 | 1013.6 |
| 20260901145050 | 80 | 270 | 0.0 | 1.7 | 0.00 | 0.10 | 0.00 | 65 | 1013.9 |
| 20260901144551 | 80 | 68 | 0.0 | 2.6 | 0.00 | 0.11 | 0.00 | 65 | 1013.6 |
| 20260901144049 | 80 | 270 | 0.0 | 2.6 | 0.00 | 0.11 | 0.00 | 65 | 1013.6 |
| 20260901143549 | 79 | 23 | 0.0 | 2.6 | 0.00 | 0.11 | 0.00 | 66 | 1013.6 |
| 20260901143049 | 79 | 248 | 0.0 | 2.6 | 0.00 | 0.13 | 0.00 | 68 | 1013.6 |
| 20260901142820 | 78 | 23 | 0.0 | 3.5 | 0.00 | 0.13 | 0.00 | 69 | 1013.3 |
| 20260901142050 | 78 | 248 | 0.0 | 3.5 | 0.00 | 0.13 | 0.00 | 70 | 1013.3 |
| 20260901141550 | 78 | 248 | 0.0 | 2.6 | 0.00 | 0.13 | 0.00 | 71 | 1013.6 |
| 20260901141050 | 78 | 68 | 0.0 | 1.7 | 0.00 | 0.13 | 0.00 | 71 | 1013.9 |
| 20260901140551 | 78 | 68 | 0.0 | 0.0 | 0.00 | 0.13 | 0.00 | 71 | 1013.3 |
| 20260901140050 | 78 | 90 | 0.0 | 0.0 | 0.00 | 0.13 | 0.00 | 73 | 1013.3 |
| 20260901135549 | 78 | 45 | 0.0 | 0.0 | 0.00 | 0.13 | 0.00 | 73 | 1013.6 |
| 20260901135049 | 77 | 23 | 0.0 | 0.0 | 0.00 | 0.13 | 0.00 | 73 | 1013.6 |
| 20260901134549 | 77 | 45 | 0.0 | 0.0 | 0.00 | 0.13 | 0.00 | 73 | 1013.3 |
| 20260901134049 | 77 | 0 | 0.0 | 0.0 | 0.00 | 0.13 | 0.00 | 74 | 1013.3 |
| 20260901133549 | 77 | 248 | 0.0 | 0.0 | 0.00 | 0.13 | 0.00 | 73 | 1013.3 |
| 20260901133050 | 77 | 225 | 0.0 | 0.0 | 0.00 | 0.13 | 0.00 | 73 | 1013.3 |
| 20260901132551 | 77 | 248 | 0.0 | 0.0 | 0.00 | 0.13 | 0.00 | 73 | 1013.3 |
| 20260901132050 | 77 | 113 | 0.0 | 0.0 | 0.00 | 0.13 | 0.00 | 73 | 1012.8 |
| 20260901131550 | 77 | 45 | 0.0 | 0.0 | 0.00 | 0.13 | 0.00 | 73 | 1012.5 |
| 20260901131051 | 77 | 225 | 0.0 | 0.0 | 0.00 | 0.13 | 0.00 | 74 | 1012.8 |
| 20260901130549 | 77 | 90 | 0.0 | 0.0 | 0.00 | 0.13 | 0.00 | 73 | 1012.8 |
| 20260901130319 | 77 | 45 | 0.0 | 0.0 | 0.00 | 0.13 | 0.00 | 73 | 1012.8 |
| 20260901125553 | 77 | 68 | 0.0 | 0.0 | 0.00 | 0.13 | 0.00 | 73 | 1012.8 |
| 20260901125549 | 77 | 45 | 0.0 | 0.0 | 0.00 | 0.13 | 0.00 | 74 | 1012.8 |
| 20260901124550 | 77 | 68 | 0.0 | 0.0 | 0.00 | 0.13 | 0.00 | 73 | 1012.8 |
| 20260901124050 | 77 | 68 | 0.0 | 0.0 | 0.00 | 0.13 | 0.00 | 73 | 1012.8 |
| 20260901123550 | 77 | 158 | 0.0 | 0.0 | 0.00 | 0.13 | 0.00 | 74 | 1012.8 |
| 20260901123322 | 77 | 113 | 0.0 | 0.0 | 0.00 | 0.13 | 0.00 | 74 | 1012.8 |
| 20260901122550 | 77 | 113 | 0.0 | 0.0 | 0.00 | 0.13 | 0.00 | 73 | 1012.8 |
| 20260901122049 | 77 | 113 | 0.0 | 0.0 | 0.00 | 0.13 | 0.00 | 74 | 1012.8 |
| 20260901121549 | 77 | 113 | 0.0 | 0.0 | 0.00 | 0.13 | 0.00 | 73 | 1012.5 |
| 20260901121049 | 77 | 158 | 0.0 | 0.0 | 0.00 | 0.13 | 0.00 | 73 | 1012.5 |
| 20260901120549 | 78 | 113 | 0.0 | 0.0 | 0.00 | 0.13 | 0.00 | 71 | 1012.5 |
| 20260901120056 | 78 | 23 | 0.0 | 0.0 | 0.00 | 0.13 | 0.00 | 73 | 1012.1 |
| 20260901120052 | 78 | 135 | 0.0 | 0.0 | 0.00 | 0.13 | 0.00 | 73 | 1012.5 |
| 20260901115322 | 78 | 23 | 0.0 | 0.0 | 0.00 | 0.13 | 0.00 | 71 | 1012.5 |
| 20260901114550 | 78 | 180 | 0.0 | 0.0 | 0.00 | 0.13 | 0.00 | 71 | 1012.5 |
| 20260901114050 | 78 | 158 | 0.0 | 0.0 | 0.00 | 0.13 | 0.00 | 71 | 1012.5 |
| 20260901113549 | 78 | 248 | 0.0 | 0.0 | 0.00 | 0.13 | 0.00 | 71 | 1012.1 |
| 20260901113049 | 78 | 158 | 0.0 | 0.0 | 0.00 | 0.13 | 0.00 | 71 | 1012.1 |
| 20260901112549 | 78 | 158 | 0.0 | 0.0 | 0.00 | 0.13 | 0.00 | 70 | 1012.5 |
| 20260901112049 | 78 | 158 | 0.0 | 0.0 | 0.00 | 0.13 | 0.00 | 70 | 1012.1 |
| 20260901111550 | 78 | 158 | 0.0 | 2.6 | 0.00 | 0.13 | 0.00 | 70 | 1012.1 |
| 20260901111050 | 78 | 23 | 0.0 | 2.6 | 0.00 | 0.13 | 0.00 | 70 | 1012.1 |
| 20260901110551 | 78 | 68 | 0.0 | 0.0 | 0.00 | 0.13 | 0.00 | 70 | 1012.1 |
| 20260901110050 | 78 | 45 | 0.0 | 0.0 | 0.00 | 0.13 | 0.00 | 70 | 1012.1 |
| 20260901105820 | 78 | 68 | 0.0 | 0.0 | 0.00 | 0.13 | 0.00 | 70 | 1012.1 |
| 20260901105049 | 78 | 68 | 0.0 | 0.0 | 0.00 | 0.13 | 0.00 | 70 | 1012.1 |
| 20260901104549 | 78 | 68 | 0.0 | 0.0 | 0.00 | 0.13 | 0.00 | 70 | 1012.1 |